Time,TemperatureF,DewpointF,PressureIn,WindDirection,WindDirectionDegrees,WindSpeedMPH,WindSpeedGustMPH,Humidity,HourlyPrecipIn,Conditions,Clouds,dailyrainin,SoftwareType,DateUTC
2016-12-04 00:04:00,-999.9,-99.9,-100.00,ENE,69,7.0,11.0,-999,-99.99,,,-99.99,,2016-12-04 05:04:00,
2016-12-04 00:13:00,-999.9,-99.9,-100.00,ENE,72,7.0,-999.0,-999,-99.99,,,-99.99,,2016-12-04 05:13:00,
2016-12-04 00:24:00,-999.9,-99.9,-100.00,ENE,76,6.0,10.0,-999,-99.99,,,-99.99,,2016-12-04 05:24:00,
2016-12-04 00:34:00,-999.9,-99.9,-100.00,ENE,71,5.0,-999.0,-999,-99.99,,,-99.99,,2016-12-04 05:34:00,
2016-12-04 00:44:00,-999.9,-99.9,-100.00,ENE,76,6.0,8.0,-999,-99.99,,,-99.99,,2016-12-04 05:44:00,
2016-12-04 01:00:00,-999.9,-99.9,-100.00,ENE,72,5.0,7.0,-999,-99.99,,,-99.99,,2016-12-04 06:00:00,
2016-12-04 01:07:00,-999.9,-99.9,-100.00,ENE,69,5.0,8.0,-999,-99.99,,,-99.99,,2016-12-04 06:07:00,
2016-12-04 01:18:00,-999.9,-99.9,-100.00,ENE,67,5.0,7.0,-999,-99.99,,,-99.99,,2016-12-04 06:18:00,
2016-12-04 01:26:00,-999.9,-99.9,-100.00,ENE,67,5.0,7.0,-999,-99.99,,,-99.99,,2016-12-04 06:26:00,
2016-12-04 01:39:00,-999.9,-99.9,-100.00,ENE,72,5.0,7.0,-999,-99.99,,,-99.99,,2016-12-04 06:39:00,
2016-12-04 01:49:00,-999.9,-99.9,-100.00,ENE,71,4.0,7.0,-999,-99.99,,,-99.99,,2016-12-04 06:49:00,
2016-12-04 02:01:00,-999.9,-99.9,-100.00,ENE,57,4.0,5.0,-999,-99.99,,,-99.99,,2016-12-04 07:01:00,
2016-12-04 02:08:00,-999.9,-99.9,-100.00,ENE,60,3.0,5.0,-999,-99.99,,,-99.99,,2016-12-04 07:08:00,
2016-12-04 02:30:00,-999.9,-99.9,-100.00,NE,44,5.0,6.0,-999,-99.99,,,-99.99,,2016-12-04 07:30:00,
2016-12-04 02:39:00,-999.9,-99.9,-100.00,NE,50,6.0,7.0,-999,-99.99,,,-99.99,,2016-12-04 07:39:00,
2016-12-04 02:51:00,-999.9,-99.9,-100.00,NE,53,5.0,8.0,-999,-99.99,,,-99.99,,2016-12-04 07:51:00,
2016-12-04 03:02:00,-999.9,-99.9,-100.00,NE,56,4.0,6.0,-999,-99.99,,,-99.99,,2016-12-04 08:02:00,
2016-12-04 03:09:00,-999.9,-99.9,-100.00,ENE,58,4.0,6.0,-999,-99.99,,,-99.99,,2016-12-04 08:09:00,
2016-12-04 03:17:00,-999.9,-99.9,-100.00,ENE,65,4.0,6.0,-999,-99.99,,,-99.99,,2016-12-04 08:17:00,
2016-12-04 03:28:00,-999.9,-99.9,-100.00,ENE,65,4.0,6.0,-999,-99.99,,,-99.99,,2016-12-04 08:28:00,
2016-12-04 03:41:00,-999.9,-99.9,-100.00,ENE,78,4.0,6.0,-999,-99.99,,,-99.99,,2016-12-04 08:41:00,
2016-12-04 03:51:00,-999.9,-99.9,-100.00,ENE,74,4.0,6.0,-999,-99.99,,,-99.99,,2016-12-04 08:51:00,
2016-12-04 03:59:00,-999.9,-99.9,-100.00,ENE,72,3.0,6.0,-999,-99.99,,,-99.99,,2016-12-04 08:59:00,
2016-12-04 04:11:00,-999.9,-99.9,-100.00,ENE,69,3.0,5.0,-999,-99.99,,,-99.99,,2016-12-04 09:11:00,
2016-12-04 04:17:00,-999.9,-99.9,-100.00,ENE,59,3.0,5.0,-999,-99.99,,,-99.99,,2016-12-04 09:17:00,
2016-12-04 04:24:00,-999.9,-99.9,-100.00,ENE,59,3.0,5.0,-999,-99.99,,,-99.99,,2016-12-04 09:24:00,
2016-12-04 04:34:00,-999.9,-99.9,-100.00,NE,54,5.0,6.0,-999,-99.99,,,-99.99,,2016-12-04 09:34:00,
2016-12-04 04:45:00,-999.9,-99.9,-100.00,NE,55,6.0,8.0,-999,-99.99,,,-99.99,,2016-12-04 09:45:00,
2016-12-04 04:57:00,-999.9,-99.9,-100.00,NE,53,5.0,7.0,-999,-99.99,,,-99.99,,2016-12-04 09:57:00,
2016-12-04 05:04:00,-999.9,-99.9,-100.00,NE,51,5.0,7.0,-999,-99.99,,,-99.99,,2016-12-04 10:04:00,
2016-12-04 05:13:00,-999.9,-99.9,-100.00,NE,56,5.0,7.0,-999,-99.99,,,-99.99,,2016-12-04 10:13:00,
2016-12-04 05:24:00,-999.9,-99.9,-100.00,NE,53,5.0,-999.0,-999,-99.99,,,-99.99,,2016-12-04 10:24:00,
2016-12-04 05:34:00,-999.9,-99.9,-100.00,NE,52,4.0,6.0,-999,-99.99,,,-99.99,,2016-12-04 10:34:00,
2016-12-04 05:44:00,-999.9,-99.9,-100.00,NE,54,6.0,7.0,-999,-99.99,,,-99.99,,2016-12-04 10:44:00,
2016-12-04 05:55:00,-999.9,-99.9,-100.00,ENE,60,5.0,6.0,-999,-99.99,,,-99.99,,2016-12-04 10:55:00,
2016-12-04 06:04:00,-999.9,-99.9,-100.00,ENE,70,5.0,7.0,-999,-99.99,,,-99.99,,2016-12-04 11:04:00,
2016-12-04 06:13:00,-999.9,-99.9,-100.00,ENE,72,5.0,6.0,-999,-99.99,,,-99.99,,2016-12-04 11:13:00,
2016-12-04 06:23:00,-999.9,-99.9,-100.00,ENE,72,5.0,6.0,-999,-99.99,,,-99.99,,2016-12-04 11:23:00,
2016-12-04 06:34:00,-999.9,-99.9,-100.00,ENE,65,4.0,7.0,-999,-99.99,,,-99.99,,2016-12-04 11:34:00,
2016-12-04 06:44:00,-999.9,-99.9,-100.00,NE,55,5.0,7.0,-999,-99.99,,,-99.99,,2016-12-04 11:44:00,
2016-12-04 07:01:00,-999.9,-99.9,-100.00,ENE,66,4.0,6.0,-999,-99.99,,,-99.99,,2016-12-04 12:01:00,
2016-12-04 07:11:00,-999.9,-99.9,-100.00,ENE,70,4.0,6.0,-999,-99.99,,,-99.99,,2016-12-04 12:11:00,
2016-12-04 07:17:00,-999.9,-99.9,-100.00,ENE,74,5.0,6.0,-999,-99.99,,,-99.99,,2016-12-04 12:17:00,
2016-12-04 07:25:00,-999.9,-99.9,-100.00,ENE,74,5.0,6.0,-999,-99.99,,,-99.99,,2016-12-04 12:25:00,
2016-12-04 07:37:00,-999.9,-99.9,-100.00,ENE,69,4.0,6.0,-999,-99.99,,,-99.99,,2016-12-04 12:37:00,
2016-12-04 07:51:00,-999.9,-99.9,-100.00,East,83,3.0,8.0,-999,-99.99,,,-99.99,,2016-12-04 12:51:00,
2016-12-04 08:00:00,-999.9,-99.9,-100.00,East,87,4.0,7.0,-999,-99.99,,,-99.99,,2016-12-04 13:00:00,
2016-12-04 08:09:00,-999.9,-99.9,-100.00,East,85,5.0,8.0,-999,-99.99,,,-99.99,,2016-12-04 13:09:00,
2016-12-04 08:17:00,-999.9,-99.9,-100.00,East,95,7.0,11.0,-999,-99.99,,,-99.99,,2016-12-04 13:17:00,
2016-12-04 08:30:00,-999.9,-99.9,-100.00,East,95,7.0,11.0,-999,-99.99,,,-99.99,,2016-12-04 13:30:00,
2016-12-04 08:39:00,-999.9,-99.9,-100.00,ESE,109,11.0,17.0,-999,-99.99,,,-99.99,,2016-12-04 13:39:00,
2016-12-04 08:49:00,-999.9,-99.9,-100.00,ESE,109,9.0,15.0,-999,-99.99,,,-99.99,,2016-12-04 13:49:00,
2016-12-04 09:00:00,-999.9,-99.9,-100.00,ESE,114,8.0,14.0,-999,-99.99,,,-99.99,,2016-12-04 14:00:00,
2016-12-04 09:08:00,-999.9,-99.9,-100.00,ESE,111,11.0,15.0,-999,-99.99,,,-99.99,,2016-12-04 14:08:00,
2016-12-04 09:15:00,-999.9,-99.9,-100.00,ESE,110,8.0,14.0,-999,-99.99,,,-99.99,,2016-12-04 14:15:00,
2016-12-04 09:27:00,-999.9,-99.9,-100.00,ESE,110,8.0,14.0,-999,-99.99,,,-99.99,,2016-12-04 14:27:00,
2016-12-04 09:37:00,-999.9,-99.9,-100.00,ESE,113,8.0,14.0,-999,-99.99,,,-99.99,,2016-12-04 14:37:00,
2016-12-04 09:50:00,-999.9,-99.9,-100.00,ESE,119,7.0,14.0,-999,-99.99,,,-99.99,,2016-12-04 14:50:00,
2016-12-04 09:59:00,-999.9,-99.9,-100.00,ESE,122,5.0,11.0,-999,-99.99,,,-99.99,,2016-12-04 14:59:00,
2016-12-04 10:09:00,-999.9,-99.9,-100.00,SE,126,9.0,14.0,-999,-99.99,,,-99.99,,2016-12-04 15:09:00,
2016-12-04 10:18:00,-999.9,-99.9,-100.00,ESE,119,10.0,20.0,-999,-99.99,,,-99.99,,2016-12-04 15:18:00,
2016-12-04 10:24:00,-999.9,-99.9,-100.00,ESE,119,10.0,20.0,-999,-99.99,,,-99.99,,2016-12-04 15:24:00,
2016-12-04 10:34:00,-999.9,-99.9,-100.00,ESE,123,9.0,16.0,-999,-99.99,,,-99.99,,2016-12-04 15:34:00,
2016-12-04 10:44:00,-999.9,-99.9,-100.00,ESE,119,11.0,18.0,-999,-99.99,,,-99.99,,2016-12-04 15:44:00,
2016-12-04 10:55:00,-999.9,-99.9,-100.00,SE,127,9.0,14.0,-999,-99.99,,,-99.99,,2016-12-04 15:55:00,
2016-12-04 11:04:00,-999.9,-99.9,-100.00,SE,143,7.0,16.0,-999,-99.99,,,-99.99,,2016-12-04 16:04:00,
2016-12-04 11:14:00,-999.9,-99.9,-100.00,SE,143,8.0,9.0,-999,-99.99,,,-99.99,,2016-12-04 16:14:00,
2016-12-04 11:24:00,-999.9,-99.9,-100.00,SE,143,8.0,9.0,-999,-99.99,,,-99.99,,2016-12-04 16:24:00,
2016-12-04 11:34:00,-999.9,-99.9,-100.00,ESE,119,4.0,11.0,-999,-99.99,,,-99.99,,2016-12-04 16:34:00,
2016-12-04 11:47:00,-999.9,-99.9,-100.00,SSE,159,8.0,13.0,-999,-99.99,,,-99.99,,2016-12-04 16:47:00,
2016-12-04 12:04:00,-999.9,-99.9,-100.00,SSE,158,8.0,12.0,-999,-99.99,,,-99.99,,2016-12-04 17:04:00,
2016-12-04 12:13:00,-999.9,-99.9,-100.00,SSE,161,8.0,14.0,-999,-99.99,,,-99.99,,2016-12-04 17:13:00,
2016-12-04 12:24:00,-999.9,-99.9,-100.00,SSE,161,8.0,14.0,-999,-99.99,,,-99.99,,2016-12-04 17:24:00,
2016-12-04 12:36:00,-999.9,-99.9,-100.00,SE,146,10.0,-999.0,-999,-99.99,,,-99.99,,2016-12-04 17:36:00,
2016-12-04 12:44:00,-999.9,-99.9,-100.00,ESE,122,6.0,13.0,-999,-99.99,,,-99.99,,2016-12-04 17:44:00,
2016-12-04 13:01:00,-999.9,-99.9,-100.00,SSE,154,10.0,13.0,-999,-99.99,,,-99.99,,2016-12-04 18:01:00,
2016-12-04 13:09:00,-999.9,-99.9,-100.00,SE,132,5.0,12.0,-999,-99.99,,,-99.99,,2016-12-04 18:09:00,
2016-12-04 13:17:00,-999.9,-99.9,-100.00,ESE,112,9.0,13.0,-999,-99.99,,,-99.99,,2016-12-04 18:17:00,
2016-12-04 13:28:00,-999.9,-99.9,-100.00,SE,137,6.0,10.0,-999,-99.99,,,-99.99,,2016-12-04 18:28:00,
2016-12-04 13:39:00,-999.9,-99.9,-100.00,SE,126,4.0,12.0,-999,-99.99,,,-99.99,,2016-12-04 18:39:00,
2016-12-04 13:48:00,-999.9,-99.9,-100.00,SSE,150,7.0,12.0,-999,-99.99,,,-99.99,,2016-12-04 18:48:00,
2016-12-04 14:01:00,-999.9,-99.9,-100.00,SSE,165,8.0,10.0,-999,-99.99,,,-99.99,,2016-12-04 19:01:00,
2016-12-04 14:11:00,-999.9,-99.9,-100.00,SSE,157,6.0,11.0,-999,-99.99,,,-99.99,,2016-12-04 19:11:00,
2016-12-04 14:18:00,-999.9,-99.9,-100.00,SE,129,5.0,11.0,-999,-99.99,,,-99.99,,2016-12-04 19:18:00,
2016-12-04 14:27:00,-999.9,-99.9,-100.00,SSE,163,8.0,13.0,-999,-99.99,,,-99.99,,2016-12-04 19:27:00,
2016-12-04 14:41:00,-999.9,-99.9,-100.00,SE,141,5.0,-999.0,-999,-99.99,,,-99.99,,2016-12-04 19:41:00,
2016-12-04 14:50:00,-999.9,-99.9,-100.00,SE,139,5.0,10.0,-999,-99.99,,,-99.99,,2016-12-04 19:50:00,
2016-12-04 15:09:00,-999.9,-99.9,-100.00,SSE,157,7.0,11.0,-999,-99.99,,,-99.99,,2016-12-04 20:09:00,
2016-12-04 15:17:00,-999.9,-99.9,-100.00,SE,142,6.0,11.0,-999,-99.99,,,-99.99,,2016-12-04 20:17:00,
2016-12-04 15:29:00,-999.9,-99.9,-100.00,SE,142,6.0,11.0,-999,-99.99,,,-99.99,,2016-12-04 20:29:00,
2016-12-04 15:40:00,-999.9,-99.9,-100.00,SSE,156,7.0,9.0,-999,-99.99,,,-99.99,,2016-12-04 20:40:00,
2016-12-04 15:48:00,-999.9,-99.9,-100.00,SSE,162,6.0,10.0,-999,-99.99,,,-99.99,,2016-12-04 20:48:00,
2016-12-04 16:00:00,-999.9,-99.9,-100.00,SE,142,5.0,11.0,-999,-99.99,,,-99.99,,2016-12-04 21:00:00,
2016-12-04 16:10:00,-999.9,-99.9,-100.00,SSE,156,5.0,9.0,-999,-99.99,,,-99.99,,2016-12-04 21:10:00,
2016-12-04 16:19:00,-999.9,-99.9,-100.00,SSE,157,7.0,11.0,-999,-99.99,,,-99.99,,2016-12-04 21:19:00,
2016-12-04 16:34:00,-999.9,-99.9,-100.00,SSE,152,6.0,10.0,-999,-99.99,,,-99.99,,2016-12-04 21:34:00,
2016-12-04 16:45:00,-999.9,-99.9,-100.00,SSE,148,7.0,13.0,-999,-99.99,,,-99.99,,2016-12-04 21:45:00,